Location: ??????
(48.4766°N, 34.1092°E)
Time: 07:14:12
(UTC+00:00)

Daily predictions for brighter satellites

Satellite Brightness Start Highest point End
(mag) Time Altitude Azimuth Time Altitude Azimuth Time Altitude Azimuth
BREEZE M DEB (TANK) 4.5 15:53:38 10° WNW 15:58:26 84° SSW 16:20:27 10° ESE
Cosmos 1943 3.2 16:07:18 10° NNW 16:12:59 78° ENE 16:18:39 10° SSE
Cosmos 1975 Rocket 3.3 16:09:55 10° N 16:14:09 48° ENE 16:18:19 10° SSE
Cosmos 1898 Rocket 3.5 16:09:40 10° S 16:14:46 64° ESE 16:19:55 10° NNE
COSMO-SKYMED 1 3.1 16:14:02 10° N 16:18:22 67° WNW 16:22:40 10° SSW
HJ-1C 3.7 16:15:43 10° SE 16:18:50 42° ENE 16:22:00 10° N
ATLAS CENTAUR R/B 3.7 16:16:48 10° W 16:19:44 20° NW 16:22:35 10° NNE
Cosmos 1867 3.7 16:15:36 10° NW 16:21:03 61° NE 16:26:27 10° SE
BREEZE-M DEB (TANK) 2.3 16:18:32 10° WNW 16:21:04 79° SSW 16:27:09 10° ESE
Cosmos 2227 Rocket 4.4 16:20:30 10° WSW 16:25:12 26° NW 16:29:56 10° NNE
CSL-04 Debris 4.2 16:21:11 10° SSE 16:26:33 77° ENE 16:31:57 10° NNW
USA 102 4.2 16:25:41 10° SE 16:29:34 18° ESE 16:30:57 14° E
Resurs 01 Rocket 3.7 16:28:40 10° ENE 16:29:58 11° NE 16:31:15 10° NE
Meteor 1-21 4.2 16:25:24 10° N 16:31:03 82° ENE 16:36:39 10° SSE
Lacrosse 5 rocket 2.6 16:28:03 10° W 16:32:05 41° NNW 16:36:20 10° NE
Cosmos 1603 4.1 16:27:45 10° NNW 16:33:24 67° WSW 16:38:57 10° SSE
Sich 1 Rocket 3.9 16:29:48 10° SSE 16:34:05 46° E 16:38:26 10° NNE
MOS 1 Rocket 3.5 16:30:36 10° NNE 16:34:53 42° E 16:38:59 10° S
CSL-04 Rocket 3.7 16:29:40 10° SSE 16:35:05 85° ENE 16:40:38 10° NNW
Cosmos 807 4.3 16:32:18 10° S 16:35:25 67° E 16:39:10 10° NNE
NOSS 8 (H) 4.0 16:33:28 10° SW 16:36:38 76° SE 16:39:39 10° NE
SJ 16-02 2.9 16:38:26 10° SW 16:42:33 39° WNW 16:46:42 10° N
Cosmos 1937 Rocket 3.5 16:37:45 10° SSW 16:43:00 80° ESE 16:48:14 10° NNE
NOSS 2-2 (E) 3.2 16:41:15 10° SSW 16:44:38 52° SE 16:48:29 10° NE
OBJECT-B 2.6 16:46:10 15° E 16:46:58 16° ENE 16:49:02 10° NNE
Cosmos 1464 Rocket 4.1 16:41:10 10° SSE 16:47:02 50° E 16:52:58 10° NNE
ATLAS 2AS CENTAUR R/B 4.3 16:46:37 10° SE 16:50:41 15° ESE 16:54:46 10° ENE
Okean 2 Rocket 3.4 16:48:27 10° SSE 16:52:44 46° E 16:57:02 10° NNE
NOSS 2-2 (D) 3.2 16:49:56 10° SSW 16:53:18 49° SE 16:57:05 10° NE
SL-08 RB Rocket 3.8 16:49:54 10° SSE 16:54:24 57° ENE 16:58:53 10° N
USA 116 4.1 16:54:28 10° N 16:57:50 61° WNW 17:01:33 10° SSW
CENTAUR R/B 3.5 16:50:29 10° NW 16:58:05 53° NE 17:04:47 17° ESE
Abrixas rocket 1.7 16:56:08 10° W 16:58:59 87° S 17:00:27 26° E
Cosmos 1300 Rocket 3.6 16:57:21 10° S 17:01:38 54° E 17:05:59 10° NNE
ATLAS 3B R/B 3.9 16:58:54 10° NW 17:04:42 29° NNE 17:09:41 14° ENE
Cosmos 2082 Rocket 4.3 17:03:01 10° N 17:05:30 13° NNE 17:07:58 10° ENE
H-2A R/B 2.5 17:04:07 10° S 17:09:00 61° W 17:14:03 10° NNW
USA 238 DEB 3.9 17:02:15 10° NW 17:09:26 71° NE 17:15:03 19° SE
USA 238 3.9 17:02:21 10° NW 17:09:32 70° NE 17:15:08 19° SE
Cosmos 1805 4.4 17:13:47 24° E 17:13:47 24° E 17:16:36 10° NE
Cosmos 1048 Rocket 4.1 17:08:42 10° NNW 17:13:59 63° ENE 17:17:46 19° SE
Cosmos 1891 Rocket 4.4 17:08:22 10° S 17:14:30 83° E 17:20:35 10° N
CZ-4 R/B 4.1 17:11:44 10° SW 17:15:02 22° W 17:18:20 10° NW
USA 102 3.1 17:08:43 10° SSE 17:15:19 58° SW 17:15:43 50° W
Cosmos 1674 3.2 17:12:26 10° N 17:16:06 39° ENE 17:17:20 30° ESE
In-Cosmos 22 4.0 17:11:04 10° N 17:16:23 85° ENE 17:21:45 10° SSE
Cosmos 1536 Rocket 3.5 17:13:51 10° N 17:18:17 67° ENE 17:21:48 16° SSE
ARGOS 3.6 17:16:20 10° S 17:21:39 64° W 17:27:00 10° NNW
ISS -3.6 17:19:11 10° SW 17:22:28 53° SSE 17:23:09 43° ESE
CZ-2C R/B 2.7 17:18:27 10° NNE 17:23:57 62° E 17:29:29 10° S
Cosmos 1025 Rocket 3.2 17:24:09 10° NNW 17:28:32 74° W 17:32:54 10° S
Cosmos 1707 4.0 17:29:50 10° NNW 17:33:28 41° W 17:37:04 10° SSW
Cosmos 2151 Rocket 3.5 17:29:41 10° S 17:34:08 86° E 17:38:39 10° N
NOSS 3-2 (A) 4.1 17:29:42 10° NW 17:37:11 84° SW 17:42:54 23° SE
KORONAS-FOTON 3.8 17:33:32 10° N 17:37:28 67° ENE 17:38:31 45° SE
Ariane Rocket 3.2 17:32:49 10° S 17:37:51 71° WSW 17:42:57 10° NNW
NOSS 2-2 (C) 3.6 17:34:24 10° SW 17:37:53 62° NW 17:41:54 10° NE
Nadezhda 4 Rocket 3.9 17:32:11 10° N 17:38:21 87° W 17:44:28 10° S
Cosmos 1844 3.8 17:33:28 10° S 17:38:56 49° ESE 17:44:21 10° NE
Cosmos 2263 Rocket 3.7 17:36:16 10° WSW 17:41:23 36° NW 17:46:33 10° NNE
SJ-6B 3.0 17:40:37 23° S 17:42:47 63° WSW 17:46:32 10° NNW
USA 186 3.2 17:41:31 16° SSW 17:43:40 36° W 17:46:42 10° NNW
Cosmos 494 Rocket 3.9 17:38:40 10° NNW 17:43:57 73° ENE 17:46:04 37° SE
MOS 1 4.4 17:38:41 12° S 17:44:02 75° WSW 17:49:48 10° NNW
Terra 4.1 17:44:49 11° NE 17:44:49 11° NE 17:45:45 10° NE
Cosmos 2034 Rocket 4.0 17:38:11 10° S 17:44:34 88° W 17:50:58 10° N
CREW DRAGON DEMO-1 DEB 3.3 17:43:18 10° WNW 17:46:07 54° N 17:46:07 54° N
Cosmos 1766 4.1 17:48:17 34° NE 17:48:17 34° NE 17:50:56 10° NNE
Cosmos 1844 Rocket 2.5 17:42:19 10° SSW 17:47:50 70° ESE 17:53:25 10° NNE
FREGAT/IRIS 3.6 17:49:42 36° W 17:49:44 36° W 17:52:11 10° NNW
Cosmos 2298 Rocket 4.1 17:46:04 10° SSW 17:51:25 82° WNW 17:56:47 10° NNE
Lacrosse 4 Rocket 3.5 17:51:40 10° N 17:53:51 14° NE 17:54:01 14° NE
SPOT 3 Rocket 3.4 17:52:17 38° SSE 17:54:20 78° ENE 17:59:30 10° NNW
USA 234 3.3 17:49:42 13° ENE 17:55:33 52° SE 18:01:54 10° SSW
Resurs 01 Rocket 1.5 18:05:19 70° ESE 18:05:40 75° ENE 18:10:07 10° N
Cosmos 1833 Rocket 3.3 18:03:52 10° NNW 18:09:08 38° NE 18:09:44 37° ENE
SPOT 5 4.4 18:10:14 25° NE 18:10:14 25° NE 18:14:03 10° N
Meteor 1-15 Rocket 4.4 18:05:43 10° SSW 18:11:20 74° WNW 18:17:05 10° N
NOSS 3-2 (C) 4.0 18:04:28 10° NW 18:11:57 81° SW 18:15:36 38° SSE
Lacrosse 5 rocket 3.2 18:08:24 10° WNW 18:12:10 27° N 18:13:51 21° NE
Cosmos 1634 Rocket 3.8 18:14:26 35° S 18:17:14 77° E 18:23:26 10° NNE
OBJECT-B 2.4 18:19:21 34° W 18:19:21 34° W 18:22:05 10° NNW
Cosmos 1626 3.1 18:18:56 10° N 18:21:30 42° NNW 18:21:30 42° NNW
ARIANE 5 R/B 3.0 18:23:29 53° NNE 18:23:29 53° NNE 18:27:00 10° N
Cosmos 2285 Rocket 3.9 18:18:12 10° SSW 18:24:30 86° WNW 18:30:55 10° NNE
CRYOSAT 2 4.5 18:22:59 10° N 18:27:14 62° NE 18:27:14 62° NE
Cosmos 1125 Rocket 3.9 18:23:58 10° SW 18:29:14 64° WNW 18:34:33 10° NNE
Landsat 7 4.1 18:30:13 58° NNE 18:30:13 58° NNE 18:34:17 10° N
Okean 1 Rocket 3.8 18:31:11 38° SW 18:32:33 52° WNW 18:36:58 10° N
ERS-1 Rocket 3.9 18:37:27 36° NE 18:37:27 36° NE 18:41:02 10° N
Meteor 2-19 Rocket 4.3 18:32:21 10° N 18:38:29 69° ENE 18:38:34 69° E
ATLAS 2AS CENTAUR R/B 2.9 18:32:30 10° SSW 18:40:17 63° ESE 18:48:02 10° NE
Meteor 2-5 Rocket 4.4 18:35:41 10° NNW 18:41:07 52° W 18:42:58 37° SW
Cosmos 2026 Rocket 4.4 18:37:47 10° NNW 18:44:02 61° W 18:46:19 39° SSW
CENTAUR R/B 3.5 18:41:15 10° NW 18:49:10 59° WSW 18:51:58 42° S
Cosmos 2098 Rocket 4.1 18:42:26 10° N 18:49:33 67° ENE 18:49:33 67° ENE
Cosmos 2082 Rocket 2.9 18:45:43 10° NNW 18:50:26 43° NNE 18:50:26 43° NNE
Exosat Rocket 4.5 18:51:11 10° SW 18:56:23 46° WNW 19:01:13 10° NNE
ATLAS 3B R/B 2.6 18:49:37 10° NW 18:56:29 74° NE 18:56:56 72° E
ISS -0.5 18:56:00 10° W 18:56:09 11° W 18:56:09 11° W
Cosmos 2279 Rocket 3.9 19:00:02 80° SW 19:00:20 83° W 19:06:39 10° N
COSMOS 2406 3.3 18:55:55 10° NNW 19:01:06 70° WNW 19:01:06 70° WNW
SPOT 1/Viking Rocket 3.9 19:02:43 60° NNW 19:02:43 60° NNW 19:06:58 10° NNW
Spot 2 Rocket 4.2 19:10:54 51° NW 19:10:54 51° NW 19:14:57 10° NNW
Cosmos 909 Rocket 4.2 19:06:29 10° NW 19:12:38 65° NNE 19:12:38 65° NNE
Terra 3.5 19:23:43 29° N 19:23:43 29° N 19:26:06 10° N
Cosmos 2278 Rocket 4.0 19:26:08 21° NNE 19:26:08 21° NNE 19:27:56 10° NNE
Lacrosse 4 Rocket 4.0 19:29:11 10° NNW 19:30:19 18° NNW 19:30:19 18° NNW
USA 234 3.5 19:37:13 52° NNE 19:38:42 66° NNW 19:45:10 10° WSW
Resurs 01 Rocket 4.3 19:42:54 13° W 19:42:54 13° W 19:44:54 10° WNW
SPOT 5 4.5 19:49:28 35° NW 19:49:28 35° NW 19:52:41 10° NNW
Lacrosse 5 rocket 4.1 19:48:00 10° NW 19:49:28 19° NW 19:49:28 19° NW
Cosmos 1833 Rocket 4.1 19:47:50 10° NW 19:51:25 33° WNW 19:51:25 33° WNW
ATLAS 2AS CENTAUR R/B 3.8 20:24:00 10° WSW 20:31:39 48° NW 20:39:10 10° NE
Cosmos 2082 Rocket 4.2 20:30:05 10° NW 20:32:16 21° WNW 20:32:16 21° WNW
ATLAS 3B R/B 4.4 20:40:54 10° WNW 20:44:10 23° W 20:44:10 23° W
Cosmos 2278 Rocket 4.3 21:07:57 22° NNW 21:07:57 22° NNW 21:11:30 10° N
CZ-4C R/B 4.1 21:49:08 27° NNE 21:49:08 27° NNE 21:52:38 10° NE
Cosmos 1943 Rocket 4.2 22:16:55 23° N 22:16:55 23° N 22:19:21 10° NNE
Resurs 1-4 Rocket 4.4 22:27:00 10° NE 22:28:48 18° NE 22:28:48 18° NE
Cosmos 2297 Rocket 4.1 22:28:12 10° NNW 22:31:23 26° NNE 22:31:23 26° NNE
Cosmos 2369 Rocket 4.1 22:44:14 25° N 22:44:14 25° N 22:47:03 10° NNE
SL-16 R/B 3.5 22:58:38 42° N 22:58:38 42° N 23:02:40 10° N
USA 234 3.9 22:57:17 10° E 23:03:31 49° NNE 23:05:21 39° NNW
Cosmos 2227 Rocket 3.8 23:25:11 10° NNW 23:27:48 28° NNW 23:27:48 28° NNW
ADEOS II 3.6 23:26:49 10° NNE 23:30:32 32° ENE 23:30:32 32° ENE
CZ-4C R/B 4.4 23:34:17 16° NW 23:37:06 22° N 23:42:18 10° NE
ARIANE 5 R/B 4.3 23:41:45 10° NE 23:45:50 24° E 23:46:07 24° E
IRS-1D 4.5 23:43:42 10° NNE 23:47:53 46° ENE 23:47:53 46° ENE
